Flag for Greenland Weather past 2 weeks in Qaanaaq, Greenland

Now
-24 °F

Clear.


Feels Like: -42 °F
Forecast: -35 / -27 °F
Wind: 7 mph from Southeast

Location: Thule A. B.

Current Time: Jan 31, 2015 at 2:58:48 AM

Latest Report: Jan 31, 2015 at 1:58 AM


Visibility: N/A

Pressure: 29.96 "Hg

Humidity: 75%

Dew point: -29 °F

Location of QaanaaqLocation

Historic Weather in Qaanaaq — Graph

°F

Qaanaaq temperature yesterday

Maximum temperature yesterday: -22 °F (at 1:58 AM)
Minimum temperature yesterday: -27 °F (at 11:58 AM)
Average temperature yesterday: -24 °F

Past Weeks' High & Low Weather Summary

 TemperatureHumidityPressure
High25 °F (Jan 19, 1:58 AM)100% (Jan 26, 3:58 PM)30.26 "Hg (Jan 26, 3:58 PM)
Low-29 °F (Jan 26, 3:58 PM)51% (Jan 27, 12:58 AM)28.86 "Hg (Jan 19, 2:58 AM)
Average-13 °F72%29.65 "Hg
* Reported Jan 16 12:58 AM — Jan 31 12:58 AM, Qaanaaq, Weather by CustomWeather, © 2014

Note: Actual official high and low records may vary slightly from our data, if they occured in-between our weather recording intervals... More about our weather records

Advertising

Qaanaaq weather history for previous 24 hours

 ConditionsComfort  
Time TempWeatherWind HumidityBarometerVisibility
12:58 AM
Jan 31
-24 °FClear.10 mph75%29.96 "HgN/A
11:58 PM
Jan 30
-26 °FClear.13 mph82%29.97 "HgN/A
10:58 PM-26 °FClear.10 mph82%29.96 "HgN/A
9:58 PM-24 °FClear.8 mph75%29.96 "HgN/A
8:58 PM-26 °FSunny.9 mph82%29.96 "HgN/A
7:58 PM-24 °FSunny.6 mph75%29.96 "HgN/A
6:58 PM-27 °FSunny.6 mph91%29.95 "HgN/A
5:58 PM-24 °FSunny.6 mph75%29.93 "HgN/A
4:58 PM-24 °FSunny.12 mph75%29.92 "HgN/A
3:58 PM-26 °FSunny.13 mph82%29.93 "HgN/A
2:58 PM-24 °FSunny.10 mph75%29.93 "HgN/A
1:58 PM-22 °FSunny.10 mph68%29.94 "HgN/A
12:58 PM-26 °FSunny.9 mph82%29.94 "HgN/A
11:58 AM-27 °FSunny.8 mph91%29.94 "HgN/A
10:58 AM-26 °FSunny.10 mph82%29.96 "HgN/A
9:58 AM-26 °FSunny.5 mph82%29.96 "HgN/A
8:58 AM-24 °FSunny.8 mph75%29.97 "HgN/A
7:58 AM-26 °FClear.8 mph82%29.98 "HgN/A
6:59 AM-26 °FClear.6 mph82%30.00 "Hg2 mi
5:58 AM-24 °FClear.5 mph75%29.99 "HgN/A
4:58 AM-22 °FClear.5 mph68%29.99 "HgN/A
3:58 AM-22 °FClear.12 mph75%30.00 "HgN/A
2:58 AM-22 °FSunny.10 mph75%30.01 "HgN/A
Weather by CustomWeather, © 2014

See weather overviewHow to use our weather pages